Flag for U.S.A. Weather past 2 weeks in Spartanburg, South Carolina, U.S.A.

Now
73 °F

Clear.


Feels Like: 68 °F
Forecast: 66 / 90 °F
Wind: No wind

Location: Spartanburg Memorial

Current Time: Aug 30, 2014 at 3:06:40 AM

Latest Report: Aug 30, 2014 at 2:35 AM


Visibility: 7 mi

Pressure: 30.17 "Hg

Humidity: 100%

Dew point: 73 °F

Location of SpartanburgLocation

Historic Weather in Spartanburg — Graph

°F

Spartanburg temperature yesterday

Maximum temperature yesterday: 91 °F (at 2:55 PM)
Minimum temperature yesterday: 68 °F (at 5:35 AM)
Average temperature yesterday: 79 °F

Past Weeks' High & Low Weather Summary

 TemperatureHumidityPressure
High95 °F (Aug 21, 4:15 PM)100% (Aug 15, 1:35 AM)30.18 "Hg (Aug 15, 1:35 AM)
Low63 °F (Aug 26, 5:35 AM)27% (Aug 27, 4:55 PM)29.83 "Hg (Aug 18, 6:15 PM)
Average78 °F74%30.03 "Hg
* Reported Aug 15 1:35 AM — Aug 30 1:55 AM, Spartanburg, Weather by CustomWeather, © 2014

Note: Actual official high and low records may vary slightly from our data, if they occured in-between our weather recording intervals... More about our weather records

Advertising

Spartanburg weather history for previous 24 hours

 ConditionsComfort  
Time TempWeatherWind HumidityBarometerVisibility
1:55 AM
Aug 30
75 °FClear.No wind100%30.17 "Hg7 mi
1:35 AM75 °FClear.3 mph100%30.17 "Hg10 mi
1:15 AM75 °FClear.3 mph100%30.17 "Hg10 mi
12:55 AM77 °FClear.3 mph100%30.17 "Hg10 mi
12:35 AM77 °FClear.3 mph100%30.16 "Hg10 mi
12:15 AM77 °FClear.3 mph89%30.15 "Hg10 mi
11:55 PM
Aug 29
77 °FClear.6 mph89%30.14 "Hg10 mi
11:35 PM79 °FClear.3 mph84%30.15 "Hg10 mi
11:15 PM79 °FClear.5 mph84%30.14 "Hg10 mi
10:55 PM79 °FClear.5 mph84%30.13 "Hg10 mi
10:35 PM81 °FClear.6 mph74%30.13 "Hg10 mi
10:15 PM81 °FClear.5 mph74%30.12 "Hg10 mi
9:55 PM81 °FClear.6 mph79%30.12 "Hg10 mi
9:35 PM81 °FClear.3 mph79%30.12 "Hg10 mi
9:15 PM82 °FClear.5 mph70%30.10 "Hg10 mi
8:55 PM82 °FSunny.5 mph70%30.10 "Hg10 mi
8:35 PM82 °FSunny.5 mph70%30.09 "Hg10 mi
8:15 PM84 °FSunny.6 mph66%30.08 "Hg10 mi
7:55 PM86 °FSunny.6 mph62%30.08 "Hg10 mi
7:35 PM86 °FSunny.6 mph62%30.07 "Hg10 mi
7:15 PM88 °FSunny.5 mph59%30.07 "Hg10 mi
6:55 PM88 °FSunny.3 mph59%30.07 "Hg10 mi
6:35 PM90 °FSunny.5 mph55%30.07 "Hg10 mi
6:15 PM90 °FSunny.3 mph52%30.07 "Hg10 mi
5:55 PM90 °FSunny.6 mph52%30.07 "Hg10 mi
5:35 PM91 °FSunny.7 mph46%30.07 "Hg10 mi
5:15 PM91 °FSunny.5 mph46%30.07 "Hg10 mi
2:55 PM91 °FScattered clouds.7 mph52%30.10 "Hg10 mi
2:35 PM90 °FScattered clouds.5 mph52%30.10 "Hg10 mi
1:55 PM90 °FSunny.7 mph55%30.10 "Hg10 mi
1:35 PM88 °FSunny.8 mph59%30.10 "Hg10 mi
1:15 PM88 °FSunny.6 mph59%30.10 "Hg10 mi
12:55 PM88 °FSunny.5 mph59%30.11 "Hg10 mi
12:35 PM86 °FSunny.8 mph62%30.11 "Hg10 mi
12:15 PM86 °FSunny.6 mph62%30.12 "Hg10 mi
11:55 AM86 °FSunny.7 mph66%30.12 "Hg10 mi
11:35 AM86 °FSunny.6 mph62%30.13 "Hg10 mi
11:15 AM82 °FSunny.8 mph70%30.12 "Hg10 mi
10:55 AM82 °FSunny.6 mph70%30.12 "Hg10 mi
10:35 AM81 °FSunny.7 mph74%30.12 "Hg10 mi
10:15 AM79 °FSunny.8 mph79%30.11 "Hg10 mi
9:55 AM77 °FSunny.7 mph83%30.11 "Hg10 mi
9:35 AM77 °FSunny.7 mph83%30.11 "Hg10 mi
9:15 AM75 °FSunny.5 mph94%30.11 "Hg10 mi
8:55 AM73 °FSunny.3 mph100%30.11 "Hg10 mi
8:35 AM73 °FSunny.5 mph100%30.10 "Hg10 mi
7:55 AM68 °FClear.No wind100%30.10 "Hg10 mi
7:35 AM68 °FClear.No wind100%30.09 "Hg10 mi
7:15 AM68 °FClear.No wind100%30.09 "Hg10 mi
6:55 AM68 °FClear.No wind100%30.08 "Hg10 mi
6:35 AM68 °FClear.No wind100%30.07 "Hg10 mi
6:15 AM68 °FClear.No wind100%30.06 "Hg10 mi
5:55 AM68 °FClear.No wind100%30.05 "Hg10 mi
5:35 AM68 °FClear.No wind100%30.05 "Hg10 mi
5:15 AM70 °FClear.No wind100%30.05 "Hg10 mi
4:55 AM70 °FClear.No wind100%30.05 "Hg10 mi
4:35 AM70 °FClear.No wind100%30.05 "Hg10 mi
3:55 AM70 °FClear.No wind100%30.04 "Hg10 mi
3:35 AM70 °FClear.No wind100%30.03 "Hg10 mi
3:15 AM70 °FClear.No wind100%30.04 "Hg10 mi
Weather by CustomWeather, © 2014

See weather overviewHow to use our weather pages